Retour au catalogue

STARLINK-34917

ActifCommunicationsSSO
NORAD 65190·PAYLOAD·🇺🇸 United States

Lancé Aug 14, 2025 depuis Vandenberg Space Force Base

Loading…

Prochains Passages (prochaines 24 heures)

TLE

FraisSource: CelesTrak SupGP

Époque: Sep 15, 2026, 02:44 UTC

1 65190C 25175S   26258.11437500  .00040064  00000+0  12426-2 0  2583
2 65190  97.2843 127.1480 0002387  96.0772 339.5164 15.33445415    17

Suivez STARLINK-34917 en temps réel avec AllMySat

Download on the App Store